TimeCDT,TemperatureF,Dew PointF,Humidity,Sea Level PressureIn,VisibilityMPH,Wind Direction,Wind SpeedMPH,Gust SpeedMPH,PrecipitationIn,Events,Conditions,WindDirDegrees,DateUTC
12:15 AM,20.8,16.7,84,30.00,10.0,NNW,9.2,-,N/A,,Clear,330,2013-03-11 05:15:00
12:35 AM,20.1,16.3,85,30.02,10.0,NW,8.1,-,N/A,,Clear,320,2013-03-11 05:35:00
12:55 AM,20.3,16.3,85,30.01,10.0,NNW,8.1,-,N/A,,Clear,330,2013-03-11 05:55:00
1:15 AM,19.4,15.8,86,30.00,10.0,NW,9.2,-,N/A,,Clear,310,2013-03-11 06:15:00
1:35 AM,19.4,15.8,86,30.00,10.0,NW,8.1,-,N/A,,Clear,320,2013-03-11 06:35:00
1:55 AM,19.6,15.8,85,29.99,10.0,NW,8.1,-,N/A,,Clear,320,2013-03-11 06:55:00
2:15 AM,19.8,15.8,85,29.99,10.0,WNW,10.4,-,N/A,,Clear,300,2013-03-11 07:15:00
2:35 AM,19.2,15.8,87,29.98,10.0,WNW,9.2,-,N/A,,Clear,290,2013-03-11 07:35:00
2:55 AM,19.2,15.3,85,29.98,10.0,WNW,9.2,-,N/A,,Clear,290,2013-03-11 07:55:00
3:15 AM,19.4,15.6,85,29.98,10.0,WNW,9.2,-,N/A,,Clear,300,2013-03-11 08:15:00
3:35 AM,19.6,14.7,81,29.97,10.0,WNW,9.2,-,N/A,,Clear,300,2013-03-11 08:35:00
3:55 AM,19.4,14.7,82,29.96,10.0,NW,9.2,-,N/A,,Clear,310,2013-03-11 08:55:00
4:15 AM,19.4,14.7,82,29.95,10.0,NW,8.1,-,N/A,,Clear,310,2013-03-11 09:15:00
4:35 AM,19.4,15.1,83,29.95,10.0,WNW,9.2,-,N/A,,Clear,290,2013-03-11 09:35:00
4:55 AM,19.0,15.4,86,29.95,10.0,WNW,9.2,-,N/A,,Clear,290,2013-03-11 09:55:00
5:15 AM,18.9,15.3,86,29.95,10.0,WNW,10.4,-,N/A,,Clear,300,2013-03-11 10:15:00
5:35 AM,19.4,15.4,85,29.95,10.0,WNW,9.2,-,N/A,,Clear,300,2013-03-11 10:35:00
5:55 AM,19.4,15.3,84,29.95,10.0,NW,10.4,-,N/A,,Clear,310,2013-03-11 10:55:00
6:15 AM,19.0,14.7,83,29.94,10.0,WNW,8.1,-,N/A,,Clear,300,2013-03-11 11:15:00
6:35 AM,18.3,14.2,84,29.94,10.0,NW,4.6,-,N/A,,Clear,310,2013-03-11 11:35:00
6:55 AM,18.3,14.5,85,29.94,10.0,NW,5.8,-,N/A,,Clear,310,2013-03-11 11:55:00
7:15 AM,18.5,14.9,86,29.95,10.0,Calm,Calm,-,N/A,,Clear,0,2013-03-11 12:15:00
7:35 AM,18.5,14.9,86,29.95,10.0,West,6.9,-,N/A,,Clear,280,2013-03-11 12:35:00
7:55 AM,19.0,14.9,84,29.94,10.0,West,5.8,-,N/A,,Clear,270,2013-03-11 12:55:00
8:15 AM,19.4,15.4,85,29.93,10.0,West,4.6,-,N/A,,Clear,260,2013-03-11 13:15:00
8:35 AM,20.1,15.4,82,29.93,10.0,WSW,3.5,-,N/A,,Clear,240,2013-03-11 13:35:00
8:55 AM,21.2,16.3,82,29.93,10.0,West,5.8,-,N/A,,Scattered Clouds,280,2013-03-11 13:55:00
9:15 AM,22.5,16.9,79,29.92,10.0,West,6.9,-,N/A,,Mostly Cloudy,280,2013-03-11 14:15:00
9:35 AM,23.9,17.8,77,29.92,10.0,West,5.8,-,N/A,,Scattered Clouds,280,2013-03-11 14:35:00
9:55 AM,25.7,18.5,74,29.92,10.0,WNW,10.4,-,N/A,,Clear,290,2013-03-11 14:55:00
10:15 AM,28.0,20.5,73,29.93,10.0,WNW,10.4,-,N/A,,Clear,290,2013-03-11 15:15:00
10:35 AM,30.6,21.7,70,29.92,10.0,WNW,11.5,-,N/A,,Clear,290,2013-03-11 15:35:00
10:55 AM,32.0,22.5,68,29.92,10.0,WNW,8.1,-,N/A,,Clear,290,2013-03-11 15:55:00
11:15 AM,34.2,22.8,63,29.92,10.0,WNW,9.2,-,N/A,,Clear,290,2013-03-11 16:15:00
11:35 AM,36.5,23.2,59,29.93,10.0,WNW,9.2,-,N/A,,Clear,300,2013-03-11 16:35:00
11:55 AM,38.7,23.0,53,29.92,10.0,WNW,10.4,-,N/A,,Clear,300,2013-03-11 16:55:00
12:15 PM,41.0,22.3,47,29.92,10.0,WNW,9.2,-,N/A,,Clear,300,2013-03-11 17:15:00
12:35 PM,43.2,21.6,42,29.91,10.0,WNW,12.7,-,N/A,,Clear,290,2013-03-11 17:35:00
12:55 PM,45.9,19.2,35,29.90,10.0,WNW,13.8,-,N/A,,Clear,300,2013-03-11 17:55:00
1:15 PM,47.1,20.1,34,29.89,10.0,NW,11.5,-,N/A,,Clear,310,2013-03-11 18:15:00
1:35 PM,48.6,19.8,32,29.88,10.0,WNW,11.5,-,N/A,,Clear,290,2013-03-11 18:35:00
1:55 PM,50.9,23.4,34,29.88,10.0,WNW,15.0,18.4,N/A,,Clear,300,2013-03-11 18:55:00
2:15 PM,50.5,25.9,38,29.87,10.0,NW,17.3,-,N/A,,Clear,310,2013-03-11 19:15:00
2:35 PM,52.0,27.3,39,29.86,10.0,WNW,11.5,-,N/A,,Clear,290,2013-03-11 19:35:00
2:55 PM,53.1,29.3,40,29.85,10.0,North,19.6,29.9,N/A,,Clear,350,2013-03-11 19:55:00
3:15 PM,53.2,29.1,40,29.85,10.0,NW,19.6,24.2,N/A,,Clear,320,2013-03-11 20:15:00
3:55 PM,55.0,29.1,37,29.85,10.0,NW,18.4,26.5,N/A,,Scattered Clouds,320,2013-03-11 20:55:00
4:15 PM,52.9,30.2,42,29.86,10.0,NNW,24.2,36.8,N/A,,Mostly Cloudy,340,2013-03-11 21:15:00
4:35 PM,52.9,29.7,41,29.87,10.0,NNW,27.6,32.2,N/A,,Clear,330,2013-03-11 21:35:00
4:55 PM,51.4,27.7,40,29.88,10.0,NNW,24.2,29.9,N/A,,Clear,330,2013-03-11 21:55:00
5:15 PM,50.0,29.1,45,29.88,10.0,NNW,19.6,26.5,N/A,,Clear,330,2013-03-11 22:15:00
5:35 PM,49.6,29.7,46,29.88,10.0,NNW,17.3,-,N/A,,Clear,330,2013-03-11 22:35:00
5:55 PM,50.0,30.0,46,29.88,10.0,NNW,11.5,-,N/A,,Scattered Clouds,330,2013-03-11 22:55:00
6:15 PM,51.1,28.6,42,29.88,10.0,NNW,17.3,23.0,N/A,,Scattered Clouds,330,2013-03-11 23:15:00
6:35 PM,49.3,27.1,42,29.89,10.0,NNW,17.3,-,N/A,,Scattered Clouds,340,2013-03-11 23:35:00
6:55 PM,48.4,28.4,46,29.90,10.0,NNW,16.1,20.7,N/A,,Scattered Clouds,330,2013-03-11 23:55:00
7:15 PM,47.5,28.9,49,29.90,10.0,NW,10.4,-,N/A,,Clear,320,2013-03-12 00:15:00
7:35 PM,44.6,29.3,55,29.91,10.0,NNW,11.5,-,N/A,,Clear,330,2013-03-12 00:35:00
7:55 PM,43.0,29.7,59,29.91,10.0,NW,8.1,-,N/A,,Mostly Cloudy,320,2013-03-12 00:55:00
8:15 PM,41.0,30.2,65,29.94,10.0,NW,6.9,-,N/A,,Mostly Cloudy,310,2013-03-12 01:15:00
8:35 PM,38.1,29.3,71,29.95,10.0,NNW,6.9,-,N/A,,Scattered Clouds,330,2013-03-12 01:35:00
8:55 PM,39.0,29.8,70,29.96,10.0,NW,9.2,-,N/A,,Scattered Clouds,310,2013-03-12 01:55:00
9:15 PM,38.7,30.4,72,29.98,10.0,WNW,9.2,-,N/A,,Mostly Cloudy,290,2013-03-12 02:15:00
9:35 PM,38.5,30.2,72,29.99,10.0,WNW,8.1,-,N/A,,Mostly Cloudy,300,2013-03-12 02:35:00
9:55 PM,37.0,29.3,74,29.99,10.0,NW,8.1,-,N/A,,Scattered Clouds,320,2013-03-12 02:55:00
10:15 PM,34.9,28.9,79,30.00,10.0,NNW,9.2,-,N/A,,Scattered Clouds,330,2013-03-12 03:15:00
10:35 PM,34.0,28.6,81,30.01,10.0,NW,6.9,-,N/A,,Scattered Clouds,320,2013-03-12 03:35:00
10:55 PM,34.7,29.3,81,30.02,10.0,NW,6.9,-,N/A,,Scattered Clouds,310,2013-03-12 03:55:00
11:15 PM,32.9,28.4,84,30.03,10.0,NW,4.6,-,N/A,,Clear,310,2013-03-12 04:15:00
11:35 PM,32.0,27.9,85,30.05,10.0,WNW,6.9,-,N/A,,Clear,300,2013-03-12 04:35:00
11:55 PM,31.5,27.9,87,30.05,10.0,NW,5.8,-,N/A,,Clear,310,2013-03-12 04:55:00